[[[{"header":{"parameterUnit":"kt","parameterCategory":2,"dx":1,"dy":1,"la1":30.253999710083008,"la2":30.299108505249023,"lo1":-89.0895004272461,"lo2":-89.04439544677734,"nx":28,"ny":28,"refTime":"2022-10-11T21:00:00:Z","depth":0,"parameterNumber":1,"parameterNumberName":"U-component_of_WINDS"},"data":[-8.6306,-8.6448,-8.6467,-8.6638,-8.6685,-8.6804,-8.6852,-8.6917,-8.6973,-8.7117,-8.7203,-8.7236,-8.7297,-8.7403,-8.7496,-8.7508,-8.7544,-8.7582,-8.7588,-8.7404,-8.7379,-8.7356,-8.7321,-8.7592,-8.7592,-8.7774,-8.7776,-8.7777,-8.6173,-8.622,-8.6317,-8.6422,-8.6504,-8.648,-8.6562,-8.6631,-8.6738,-8.6808,-8.6893,-8.7021,-8.7124,-8.7173,-8.7273,-8.7339,-8.733,-8.7365,-8.7356,-8.7366,-8.7171,-8.7135,-8.737,-8.737,-8.737,-8.737,-8.737,-8.737,-8.5934,-8.6019,-8.6093,-8.6197,-8.6256,-8.6326,-8.6409,-8.6447,-8.654,-8.6648,-8.6651,-8.6772,-8.6843,-8.6972,-8.7019,-8.7113,-8.7077,-8.7118,-8.7127,-8.7136,-8.7143,-8.6872,-8.7131,-8.7131,-8.713,-8.713,-8.7129,0,-8.5763,-8.5773,-8.5866,-8.5965,-8.6042,-8.6119,-8.6193,-8.6246,-8.6268,-8.6344,-8.6455,-8.6521,-8.6652,-8.6756,-8.6854,-8.6894,-8.6869,-8.6871,-8.6898,-8.6894,-8.6881,-8.6885,-8.6563,-8.6861,-8.6858,-8.6857,-8.6855,-8.6855,-8.552,-8.5617,-8.5703,-8.5765,-8.5809,-8.5911,-8.5974,-8.5987,-8.6053,-8.6144,-8.6218,-8.6324,-8.6408,-8.6581,-8.6619,-8.6716,-8.6703,-8.6815,-8.6717,-8.6713,-8.6699,-8.6691,-8.67,-8.6831,-8.6834,-8.6836,-8.6838,0,-8.538,-8.5408,-8.5563,-8.5637,-8.5659,-8.576,-8.5821,-8.5906,-8.5931,-8.6051,-8.6079,-8.6118,-8.6225,-8.6245,-8.6371,-8.6378,-8.6542,-8.6531,-8.6518,-8.6514,-8.6613,-8.6601,-8.6937,-8.698,-8.6707,-8.6709,-8.6711,0,-8.5179,-8.5307,-8.5339,-8.5428,-8.557,-8.5578,-8.5717,-8.5752,-8.5812,-8.5906,-8.5884,-8.5973,-8.5984,-8.6076,-8.6086,-8.6225,-8.6249,-8.626,-8.626,-8.6259,-8.6257,-8.6287,-8.6271,-8.6262,-8.626,-8.6259,-8.6257,0,-8.4952,-8.512,-8.5265,-8.5307,-8.5395,-8.5463,-8.5503,-8.5569,-8.563,-8.5713,-8.5752,-8.5848,-8.5899,-8.5974,-8.5984,-8.5917,-8.6155,-8.6064,-8.6165,-8.6165,-8.6211,-8.6207,-8.6506,-8.6255,-8.6255,-8.6254,-8.6253,0,-8.4791,-8.4876,-8.5084,-8.5156,-8.5198,-8.5295,-8.5388,-8.5475,-8.5547,-8.5558,-8.5623,-8.5607,-8.5732,-8.564,-8.5811,-8.5719,-8.5771,-8.5794,-8.5802,-8.5807,-8.5702,-8.5861,-8.6149,-8.6177,-8.5823,-8.5819,-8.5816,0,-8.4523,-8.4739,-8.4745,-8.4942,-8.5043,-8.5009,-8.5116,-8.5179,-8.5204,-8.5292,-8.5319,-8.542,-8.5356,-8.5388,-8.5472,-8.5501,-8.5621,-8.5487,-8.5609,-8.5613,-8.5586,-8.5853,-8.5887,-8.6086,-8.5771,-8.5775,-8.5779,0,-8.4315,-8.4421,-8.4455,-8.4501,-8.4586,-8.467,-8.4794,-8.4895,-8.4953,-8.5028,-8.5128,-8.5272,-8.5228,-8.5283,-8.5279,-8.5364,-8.554,-8.5304,-8.5305,-8.5342,-8.575,-8.5782,-8.5816,-8.5519,-8.5525,-8.5529,-8.5743,0,-8.4058,-8.4169,-8.4265,-8.4367,-8.4436,-8.456,-8.4578,-8.4647,-8.4636,-8.4657,-8.4808,-8.4862,-8.4962,-8.5006,-8.4995,-8.5185,-8.5154,-8.5105,-8.501,-8.5188,-8.5258,-8.5287,-8.4905,-8.4902,-8.49,-8.4898,0,0,-8.3791,-8.3949,-8.3949,-8.4068,-8.4124,-8.4083,-8.4214,-8.4265,-8.4366,-8.4406,-8.4355,-8.4563,-8.4608,-8.4788,-8.4845,-8.4887,-8.4921,-8.4856,-8.5105,-8.5128,-8.5149,-8.5224,-8.5254,-8.4894,-8.4893,-8.4893,-8.4892,0,-8.3698,-8.3749,-8.3879,-8.3932,-8.4009,-8.4024,-8.4056,-8.4124,-8.4142,-8.429,-8.425,-8.4342,-8.4507,-8.4559,-8.4607,-8.4838,-8.4799,-8.4869,-8.4986,-8.5082,-8.5108,-8.5131,-8.521,-8.5239,-8.4887,-8.4887,-8.4887,0,-8.3493,-8.3544,-8.3609,-8.3737,-8.3786,-8.3891,-8.3798,-8.3913,-8.399,-8.3933,-8.4079,-8.411,-8.4181,-8.435,-8.4426,-8.4381,-8.4688,-8.4594,-8.4609,-8.4615,-8.4709,-8.474,-8.4768,-8.44,-8.4398,-8.4397,0,0,-8.341,-8.3513,-8.3567,-8.3718,-8.3752,-8.3776,-8.3832,-8.3825,-8.3891,-8.3917,-8.3954,-8.4018,-8.4114,-8.4176,-8.4267,-8.4451,-8.4463,-8.4534,-8.4557,-8.4576,-8.4592,-8.4691,-8.4722,-8.439,-8.439,-8.439,0,0,-8.3369,-8.3438,-8.3415,-8.3591,-8.3656,-8.3717,-8.3808,-8.378,-8.3862,-8.3849,-8.384,-8.3856,-8.4014,-8.4046,-8.3956,-8.4232,-8.4139,-8.4161,-8.4204,-8.4234,-8.4256,-8.4242,-8.3863,0,0,0,0,0,-8.328,-8.343,-8.3408,-8.344,-8.3599,-8.3731,-8.3751,-8.3747,-8.3682,-8.3754,-8.3781,-8.3737,-8.3995,-8.3915,-8.3946,-8.4044,-8.4304,-8.432,-8.4334,-8.4433,-8.4464,-8.4489,0,0,0,0,0,0,-8.3292,-8.3332,-8.3404,-8.3472,-8.3507,-8.3725,-8.3613,-8.3616,-8.3674,-8.3663,-8.3733,-8.3739,-8.3737,-8.3899,-8.3927,-8.402,-8.3853,-8.431,-8.4323,-8.4335,-8.4444,-8.4468,-8.449,0,0,0,0,0,-8.3302,-8.3334,-8.359,-8.3469,-8.35,-8.3532,-8.3607,-8.3609,-8.3653,-8.3694,-8.3698,-8.3645,-8.374,-8.3763,-8.3916,-8.4008,-8.3834,-8.3844,-8.4319,-8.4329,-8.4338,-8.4456,0,0,0,0,0,0,-8.331,-8.3336,-8.3596,-8.3605,-8.3412,-8.352,-8.3537,-8.3603,-8.368,-8.3686,-8.3605,-8.3596,-8.3744,-8.3761,-8.3779,-8.4004,-8.3818,-8.3829,-8.3835,-8.4327,-8.4334,-8.4342,0,0,0,0,0,0,-8.3319,-8.3344,-8.3601,-8.3528,-8.3529,-8.3509,-8.3524,-8.3652,-8.3681,-8.3586,-8.3581,-8.36,-8.3716,-8.3761,-8.3774,-8.3975,-8.3806,-8.3816,-8.3823,-8.3828,-8.4333,-8.4339,0,0,0,0,0,0,-8.3329,-8.3351,-8.3525,-8.3526,-8.3527,-8.363,-8.3622,-8.3784,-8.3621,-8.3583,-8.3606,-8.3599,-8.3717,-8.3731,-8.3771,-8.3967,-8.3973,-8.3806,-8.3813,-8.3818,-8.3821,0,0,0,0,0,0,0,-8.3338,-8.3194,-8.3541,-8.3525,-8.3525,-8.3691,-8.3694,-8.3696,-8.362,-8.3614,-8.3608,-8.3602,-8.3748,-8.3759,-8.3771,-8.396,0,0,-8.3805,-8.381,0,0,0,0,0,0,0,0,-8.3185,-8.3192,-8.3542,-8.3544,-8.3546,-8.3691,-8.3693,-8.3695,-8.3619,-8.3614,-8.3609,-8.3604,-8.3751,-8.376,-8.3769,0,0,0,0,0,0,0,0,0,0,0,0,0,0,0,-8.3542,-8.3544,0,-8.3692,-8.3693,-8.3695,-8.3618,-8.3614,-8.361,-8.3606,-8.3754,-8.3761,-8.3769,0,0,0,0,0,0,0,0,0,0,0,0,0,0,0,0,0,0,0,0,0,0,0,0,0,0,0,0,0,0,0,0,0,0,0,0,0,0,0,0,0,0,0,0,0,0,0,0,0,0,0,0,0,0,0,0,0,0,0,0,0,0,0,0,0,0,0,0,0]}],[{"header":{"parameterUnit":"kt","parameterCategory":2,"dx":1,"dy":1,"la1":30.253999710083008,"la2":30.299108505249023,"lo1":-89.0895004272461,"lo2":-89.04439544677734,"nx":28,"ny":28,"refTime":"2022-10-11T21:00:00:Z","depth":0,"parameterNumber":2,"parameterNumberName":"V-component_of_WINDS"},"data":[5.3041,5.3217,5.3279,5.3508,5.3601,5.3768,5.3846,5.3953,5.4053,5.4256,5.4383,5.4459,5.458,5.4744,5.4882,5.4912,5.4967,5.4987,5.5019,5.4879,5.4863,5.4848,5.4813,5.4998,5.4998,5.5157,5.5159,5.516,5.2937,5.3033,5.3171,5.3346,5.3466,5.3485,5.3624,5.3722,5.3868,5.3992,5.4119,5.4301,5.4451,5.4566,5.472,5.4801,5.4818,5.4839,5.4835,5.4854,5.4705,5.4667,5.4823,5.4823,5.4823,5.4823,5.4823,5.4823,5.2766,5.2868,5.3011,5.3162,5.3266,5.3382,5.3489,5.3582,5.3716,5.3886,5.3929,5.4094,5.4227,5.4438,5.4523,5.4652,5.4639,5.4679,5.469,5.47,5.4704,5.4471,5.468,5.4679,5.4679,5.4679,5.4679,0,5.2659,5.2704,5.284,5.2995,5.3108,5.3232,5.3356,5.3424,5.3533,5.3638,5.3796,5.3895,5.4091,5.4244,5.4399,5.4479,5.4506,5.4514,5.4543,5.4527,5.4494,5.4516,5.4274,5.4507,5.4506,5.4505,5.4504,5.4504,5.2493,5.2604,5.2781,5.2868,5.2951,5.3089,5.3184,5.3272,5.3368,5.3531,5.3615,5.3769,5.3898,5.4135,5.4237,5.4382,5.4397,5.448,5.4418,5.4399,5.4402,5.4396,5.4408,5.449,5.4492,5.4493,5.4495,0,5.2394,5.2493,5.2683,5.2846,5.289,5.3001,5.3139,5.3243,5.332,5.3473,5.3514,5.3634,5.3784,5.3874,5.4061,5.4103,5.4286,5.4295,5.4243,5.4251,5.4336,5.4328,5.4594,5.4634,5.444,5.4442,5.4444,0,5.2292,5.2433,5.2572,5.2677,5.2837,5.2923,5.3078,5.3159,5.3275,5.3397,5.3443,5.3555,5.3652,5.3776,5.3838,5.4003,5.4037,5.408,5.4095,5.4078,5.4073,5.4129,5.4121,5.4121,5.4119,5.4118,5.4117,0,5.2129,5.2366,5.2538,5.2607,5.2793,5.2871,5.2951,5.3081,5.3171,5.3301,5.3361,5.3505,5.3585,5.3695,5.3774,5.3729,5.3976,5.3931,5.402,5.4019,5.4071,5.4067,5.4279,5.4115,5.4115,5.4114,5.4114,0,5.2061,5.2195,5.2428,5.2584,5.2643,5.2753,5.2905,5.302,5.3153,5.3201,5.3303,5.3344,5.3494,5.3443,5.3651,5.3571,5.3646,5.37,5.3708,5.3728,5.3669,5.378,5.3971,5.3995,5.3745,5.3742,5.374,0,5.185,5.211,5.2186,5.2403,5.2536,5.2582,5.2706,5.2822,5.2896,5.3018,5.3097,5.3234,5.3215,5.327,5.336,5.3448,5.3551,5.3436,5.3609,5.3614,5.3576,5.3753,5.376,5.3919,5.3701,5.3705,5.3708,0,5.1698,5.1923,5.1956,5.204,5.2208,5.2318,5.246,5.2616,5.2693,5.2816,5.2938,5.3129,5.3124,5.3213,5.326,5.335,5.3483,5.3331,5.3335,5.3358,5.3688,5.3696,5.3722,5.3495,5.35,5.3504,5.3678,0,5.1579,5.172,5.1814,5.1993,5.2092,5.2231,5.233,5.242,5.2458,5.2532,5.271,5.2825,5.2979,5.3031,5.3066,5.3243,5.3227,5.3218,5.3176,5.329,5.335,5.3374,5.308,5.3079,5.3078,5.3078,0,0,5.1353,5.1558,5.1635,5.1777,5.1866,5.191,5.2051,5.2141,5.2321,5.2381,5.2358,5.2644,5.2737,5.2943,5.2986,5.3046,5.3087,5.3043,5.3234,5.3251,5.3268,5.333,5.3354,5.3077,5.3077,5.3076,5.3076,0,5.1331,5.143,5.1569,5.1667,5.1815,5.1887,5.192,5.2073,5.2126,5.23,5.2332,5.2449,5.2673,5.277,5.2848,5.3021,5.3037,5.3059,5.3122,5.3225,5.3243,5.3259,5.3323,5.3345,5.3075,5.3075,5.3075,0,5.1201,5.1316,5.1393,5.1595,5.1691,5.1824,5.1805,5.1944,5.2044,5.2081,5.2252,5.2328,5.2463,5.2644,5.2727,5.2709,5.2987,5.2913,5.292,5.2931,5.3035,5.3056,5.3075,5.2826,5.2825,5.2823,0,0,5.1168,5.1299,5.1447,5.1597,5.1656,5.1764,5.1843,5.1889,5.2012,5.2061,5.2159,5.2275,5.2407,5.2491,5.2619,5.2802,5.2838,5.2879,5.2891,5.29,5.2916,5.3022,5.3044,5.2819,5.2819,5.2818,0,0,5.1151,5.1331,5.1348,5.1534,5.1652,5.1806,5.1893,5.1916,5.2041,5.2036,5.2116,5.2151,5.232,5.2392,5.2319,5.2606,5.2562,5.2581,5.2553,5.2569,5.2581,5.256,5.2313,0,0,0,0,0,5.1179,5.131,5.1323,5.1369,5.1622,5.1798,5.1831,5.1903,5.1872,5.194,5.2025,5.2037,5.237,5.2308,5.235,5.2431,5.2759,5.2769,5.2779,5.2786,5.2802,5.2816,0,0,0,0,0,0,5.1198,5.1254,5.132,5.1478,5.1536,5.1794,5.1758,5.1781,5.1866,5.1867,5.202,5.2042,5.2104,5.229,5.2328,5.2403,5.2301,5.2763,5.2772,5.278,5.2792,5.2805,5.2816,0,0,0,0,0,5.1213,5.1258,5.1646,5.1477,5.1527,5.1654,5.1754,5.1773,5.184,5.1972,5.1994,5.1886,5.2104,5.214,5.2313,5.2384,5.2276,5.2289,5.2769,5.2776,5.2782,5.2798,0,0,0,0,0,0,5.1224,5.1276,5.1657,5.1675,5.1433,5.1641,5.1676,5.1765,5.1941,5.1964,5.1841,5.1839,5.2106,5.2134,5.2161,5.2374,5.2255,5.2269,5.2277,5.2774,5.278,5.2785,0,0,0,0,0,0,5.1252,5.129,5.1666,5.1607,5.1619,5.1628,5.166,5.1815,5.1942,5.18,5.1804,5.1838,5.2063,5.213,5.2151,5.2391,5.2239,5.2252,5.2262,5.2267,5.2779,5.2783,0,0,0,0,0,0,5.1269,5.1303,5.1603,5.1612,5.1622,5.1827,5.1766,5.2021,5.1895,5.1791,5.1885,5.1881,5.2059,5.2082,5.2144,5.2374,5.2387,5.2239,5.2249,5.2255,5.2259,0,0,0,0,0,0,0,5.1284,5.1046,5.1552,5.1616,5.1625,5.184,5.1845,5.185,5.1894,5.189,5.1886,5.1882,5.2163,5.2178,5.2193,5.2361,0,0,5.2238,5.2245,0,0,0,0,0,0,0,0,5.1033,5.1043,5.1552,5.1556,5.156,5.1841,5.1845,5.1849,5.1893,5.189,5.1887,5.1884,5.2167,5.2179,5.2191,0,0,0,0,0,0,0,0,0,0,0,0,0,0,0,5.1553,5.1556,0,5.1841,5.1845,5.1848,5.1893,5.189,5.1887,5.1885,5.217,5.218,5.219,0,0,0,0,0,0,0,0,0,0,0,0,0,0,0,0,0,0,0,0,0,0,0,0,0,0,0,0,0,0,0,0,0,0,0,0,0,0,0,0,0,0,0,0,0,0,0,0,0,0,0,0,0,0,0,0,0,0,0,0,0,0,0,0,0,0,0,0,0]}]]]